Content
SEND FEEDBACK

Daily
Averages
Monthly
Summary
Mexico

PUEBLA - JARDINES DE SAN MANUEL, PUEBLA


Home > North America > Mexico > Puebla
Elevation: 6962 feet     Latitude: 19 00N     Longitude: 098 11W

WEATHER
 
SELECT A DAY
Number of Records: 120,900;   Date Range: 1/1/95 - 7/28/14
 
SHARE

PRINT THIS DATA

[ ← Previous Day ]
WEATHER ALMANAC - DECEMBER 7, 2013
[ Next Day → ]
[ °C ]   °F
Weather ElementAverageHighLow
Temperature59.2 °F72 °F (2:55 pm)37.4 °F (6:40 am)
Dewpoint40.4 °F46.4 °F (9:41 am)33 °F (5:55 pm)
Humidity51.2 %93 % (6:40 am)15 % (2:55 pm)
Barometer30.25 in30.46 in (8:47 am)29.84 in (5:55 pm)
Wind Speed5.5 mph15 mph (2:44 pm)
Weather ElementAverage
Visibility5.8 mi
Wind DirectionSSW (192.6 °)

Weather ElementTotal
Precipitation---
Heating Degree Days10.3 (Base 65)
Growing Degree Days4.7 (Base 50)
Averaged from 23 records on December 7, 2013
WEATHER CONDITIONS BREAKOUT
WIND DIRECTION BREAKOUT
WEATHER BY HOUR - DECEMBER 7, 2013
[ °C ]   °F
Local TimeTemperatureDewpointHumidityBarometerVisibilityWind DirectionWind SpeedGust SpeedPrecipitationEventsConditions
5:44 AM39.2 °F35.6 °F87 %30.39 in8.0 miWest (280°)4.6 mphClear
5:45 AM47.0 °F45.0 °F88 %29.99 in6.0 miCalm
6:40 AM37.4 °F35.6 °F93 %30.41 in6.0 miNNW (340°)5.8 mphClear
7:47 AM44.6 °F41.0 °F87 %30.40 in5.0 miCalmClear
8:47 AM51.8 °F44.6 °F76 %30.46 in5.0 miNorth (350°)3.5 mphClear
8:50 AM56.0 °F46.0 °F60 %30.12 in3.0 miCalmHaze
9:41 AM59.0 °F46.4 °F63 %30.45 in5.0 miSE (130°)6.9 mphClear
10:43 AM62.6 °F44.6 °F52 %30.44 in4.0 miSouth (190°)4.6 mphClear
11:46 AM66.2 °F42.8 °F43 %30.41 in4.0 miSE (140°)6.9 mphClear
11:50 AM67.0 °F42.0 °F28 %30.08 in6.0 miSSW (210°)2.2 mphHaze
12:46 PM69.8 °F41.0 °F35 %30.37 in4.0 miSouth (180°)13.8 mphClear
1:48 PM69.8 °F37.4 °F31 %30.34 in6.0 miSE (140°)8.1 mphClear
2:44 PM71.6 °F42.8 °F35 %30.32 in6.0 miSouth (180°)15.0 mphClear
2:55 PM72.0 °F35.0 °F15 %29.90 in3.0 miSouth (180°)2.2 mphHaze
3:41 PM71.6 °F41.0 °F33 %30.31 in8.0 miSouth (180°)12.7 mphClear
4:44 PM68.0 °F37.4 °F33 %30.32 in10.0 miSouth (180°)9.2 mphClear
5:48 PM62.6 °F39.2 °F42 %30.34 in8.0 miSSW (200°)8.1 mphClear
5:55 PM67.0 °F33.0 °F18 %29.84 in6.0 miSSE (150°)4.5 mphHaze
6:45 PM59.0 °F41.0 °F51 %30.35 in8.0 miSW (230°)8.1 mphClear
7:49 PM53.6 °F39.2 °F58 %30.37 in8.0 miSSE (160°)5.8 mphClear
8:41 PM53.6 °F39.2 °F58 %30.39 in8.0 miWSW (240°)4.6 mphClear
8:50 PM58.0 °F36.0 °F32 %29.87 in3.0 miCalm
11:50 PM54.0 °F44.0 °F59 %29.91 in3.0 miCalm
Hourly data recorded from MMPB, located miles away from Puebla - Jardines de San Manuel, Puebla







STORIES FROM OUR PARTNERS